KF6KYD Weather Reports


Display with metric or nautical units.
time (UTC)temp
F
wind
direction
speed
MPH
gust
MPH
rain 1hr
in
rain 24hr
in
rain mn
in
humidity
%
barometer
mb
20210928082704 81 281 1.0 3.0 0.00 0.00 0.00 91 1010.8
20210928080903 80 283 1.0 6.0 0.00 0.00 0.00 91 1010.9
20210928075403 80 251 1.0 4.0 0.00 0.00 0.00 91 1011.0
20210928074504 80 251 1.0 3.0 0.00 0.00 0.00 91 1011.0
20210928073603 80 250 1.0 4.0 0.00 0.00 0.00 91 1011.2
20210928072703 80 249 1.0 4.0 0.00 0.00 0.00 91 1011.2
20210928071803 80 249 1.0 3.0 0.00 0.00 0.00 91 1011.2
20210928070903 80 249 1.0 2.0 0.00 0.00 0.00 91 1011.2
20210928065404 80 247 1.0 4.0 0.00 0.00 0.00 91 1011.2
20210928062704 80 246 1.0 3.0 0.00 0.00 0.00 90 1011.5
20210928051803 80 222 1.0 4.0 0.00 0.00 0.00 90 1011.8
20210928050004 80 222 1.0 2.0 0.00 0.00 0.00 90 1011.9
20210928042703 80 222 0.0 1.0 0.00 0.00 0.00 89 1011.8
20210928040003 80 222 0.0 2.0 0.00 0.00 0.00 89 1012.0
20210928034504 80 222 0.0 2.0 0.00 0.00 0.00 88 1012.2
20210928032703 80 222 0.0 3.0 0.00 0.00 0.00 88 1012.3
20210928031803 80 222 0.0 3.0 0.00 0.00 0.00 88 1012.3
20210928024504 80 222 0.0 1.0 0.00 0.00 0.00 88 1012.2
20210928023603 80 222 1.0 2.0 0.00 0.00 0.00 88 1012.1
20210928021803 81 221 1.0 2.0 0.00 0.00 0.00 88 1012.0
20210928020904 81 213 1.0 3.0 0.00 0.00 0.00 88 1012.0
20210928015404 81 217 1.0 5.0 0.00 0.00 0.00 87 1011.9
20210928014505 81 219 1.0 3.0 0.00 0.00 0.00 87 1011.9
20210928011803 81 219 1.0 3.0 0.00 0.00 0.00 86 1011.8
20210928010904 81 219 1.0 4.0 0.00 0.00 0.00 86 1011.8
20210928005405 82 219 1.0 4.0 0.00 0.00 0.00 85 1011.8
20210928004504 82 219 1.0 3.0 0.00 0.00 0.00 85 1011.8
20210928002703 82 225 1.0 2.0 0.00 0.00 0.00 84 1011.7
20210928001803 82 225 1.0 2.0 0.00 0.00 0.00 83 1011.6
20210928000903 82 223 1.0 4.0 0.00 0.00 0.00 83 1011.6
20210928000004 83 230 2.0 4.0 0.00 0.00 0.00 82 1011.7
20210927235403 83 242 1.0 3.0 0.00 0.00 0.00 82 1011.7
20210927233603 84 247 2.0 4.0 0.00 0.00 0.00 80 1011.8
20210927232704 84 224 2.0 4.0 0.00 0.00 0.00 80 1011.8
20210927231804 84 221 2.0 5.0 0.00 0.00 0.00 79 1011.8
20210927230904 85 230 2.0 5.0 0.00 0.00 0.00 78 1011.8
20210927224504 86 217 2.0 5.0 0.00 0.00 0.00 77 1011.8
20210927214504 86 185 2.0 5.0 0.00 0.00 0.00 76 1012.3
20210927213603 86 211 3.0 7.0 0.00 0.00 0.00 78 1012.3
20210927212703 86 212 3.0 7.0 0.00 0.00 0.00 77 1012.3
20210927211804 86 191 2.0 6.0 0.00 0.00 0.00 77 1012.2
20210927210904 86 205 2.0 8.0 0.00 0.00 0.00 75 1012.2
20210927202703 88 205 3.0 7.0 0.00 0.00 0.00 75 1012.2
20210927200903 87 202 3.0 9.0 0.00 0.00 0.00 76 1012.5
20210927200003 86 215 3.0 8.0 0.00 0.00 0.00 76 1012.7
20210927192703 88 221 3.0 8.0 0.00 0.00 0.00 73 1012.9
20210927191803 88 159 2.0 8.0 0.00 0.00 0.00 73 1013.0
20210927190904 89 157 3.0 10.0 0.00 0.00 0.00 71 1013.1
20210927185404 89 145 3.0 6.0 0.00 0.00 0.00 71 1013.3
20210927184503 88 128 4.0 8.0 0.00 0.00 0.00 70 1013.4
20210927183603 90 204 3.0 7.0 0.00 0.00 0.00 70 1013.6
20210927182703 90 201 3.0 8.0 0.00 0.00 0.00 71 1013.9
20210927180903 88 211 3.0 7.0 0.00 0.00 0.00 72 1014.1
20210927180005 88 176 2.0 7.0 0.00 0.00 0.00 75 1014.1
20210927175404 88 199 2.0 6.0 0.00 0.00 0.00 74 1014.2
20210927174504 87 173 3.0 8.0 0.00 0.00 0.00 76 1014.2
20210927170903 87 63 2.0 6.0 0.00 0.00 0.00 75 1014.5
20210927170003 87 132 2.0 6.0 0.00 0.00 0.00 76 1014.6
20210927165403 86 130 2.0 6.0 0.00 0.00 0.00 77 1014.7
20210927164503 86 117 2.0 6.0 0.00 0.00 0.00 77 1014.7
20210927163604 86 76 2.0 6.0 0.00 0.00 0.00 77 1014.9
20210927162703 87 94 2.0 6.0 0.00 0.00 0.00 75 1014.9
20210927161804 86 196 2.0 5.0 0.00 0.00 0.00 76 1014.8
20210927160903 86 191 2.0 7.0 0.00 0.00 0.00 77 1014.7
20210927155404 85 148 3.0 7.0 0.00 0.00 0.00 78 1014.9
20210927152703 84 202 3.0 7.0 0.00 0.00 0.00 78 1014.6
20210927151803 84 171 2.0 7.0 0.00 0.00 0.00 79 1014.6
20210927150903 84 110 2.0 8.0 0.00 0.00 0.00 80 1014.6
20210927145403 82 121 2.0 6.0 0.00 0.00 0.00 82 1014.6
20210927141804 81 130 2.0 6.0 0.00 0.00 0.00 84 1014.4
20210927140904 80 113 2.0 6.0 0.00 0.00 0.00 84 1014.4
20210927134503 79 130 1.0 5.0 0.00 0.00 0.00 87 1014.3
20210927133603 79 123 1.0 7.0 0.00 0.00 0.00 87 1014.3
20210927131803 78 92 1.0 2.0 0.00 0.00 0.00 88 1014.0
20210927130903 78 89 1.0 4.0 0.00 0.00 0.00 88 1013.9
20210927123603 76 62 0.0 2.0 0.00 0.00 0.00 89 1013.8
20210927122704 76 61 0.0 2.0 0.00 0.00 0.00 89 1013.7
20210927121803 76 61 0.0 2.0 0.00 0.00 0.00 89 1013.6
20210927115403 76 75 1.0 2.0 0.00 0.00 0.00 89 1013.6
20210927114503 76 73 1.0 2.0 0.00 0.00 0.00 89 1013.5
20210927113603 76 63 0.0 1.0 0.00 0.00 0.00 89 1013.5
20210927112703 77 63 0.0 2.0 0.00 0.00 0.00 88 1013.5
20210927111803 77 63 0.0 1.0 0.00 0.00 0.00 88 1013.4
20210927110905 77 64 1.0 4.0 0.00 0.00 0.00 88 1013.4
20210927110004 77 82 1.0 3.0 0.00 0.00 0.00 88 1013.4
20210927105403 76 85 2.0 5.0 0.00 0.00 0.00 88 1013.4
20210927100903 76 74 0.0 3.0 0.00 0.00 0.00 87 1013.6
20210927095403 76 12 0.0 2.0 0.00 0.00 0.00 88 1013.6
20210927094503 76 34 0.0 1.0 0.00 0.00 0.00 88 1013.7
20210927093603 76 18 0.0 2.0 0.00 0.00 0.00 88 1013.8
20210927092703 75 253 0.0 2.0 0.00 0.00 0.00 88 1013.8
20210927091803 75 253 0.0 1.0 0.00 0.00 0.00 88 1013.8
20210927090003 75 253 0.0 1.0 0.00 0.00 0.00 88 1013.9
20210927085403 75 0 0.0 0.0 0.00 0.00 0.00 87 1014.0
20210927084503 75 253 0.0 2.0 0.00 0.00 0.00 87 1014.0
20210927083603 75 253 0.0 2.0 0.00 0.00 0.00 87 1014.1